COSMOS 2481

Satellite information

Favourite Embed

Satellite Type and Status

PAYLOADIN ORBIT

Key statistics

Satellite COSMOS 2481 at a glance.

Uptime

4893

Days in orbit

Revolutions

≈ 12.4

Per day

Orbit

LEO

Low Earth Orbit

Inclination

82.5

Latest

Satellite identification and parameters

Extended collection of information and parameters for COSMOS 2481.

Object identification

Identified? True

Debris? False

Object name: COSMOS 2481

International designator: 2012-041A

Object number (NORAD): 38733

Object ID (CCSDS): 38733

Country: COMMONWEALTH OF INDEPENDENT STATES (CIS)

Current information (Y/N): Y

RCS size: MEDIUM

Orbital parameters

Period: 115.902 minutes

Inclination: 82.4734 deg

SMA: 7874.453 km

Apoapsis: 1511.595 km

Periapsis: 1481.042 km

RAAN: 187.6008 deg

Eccentricy: 0.00194002

Argument of periapsis: 108.0728 deg

Mean anomaly: 252.2466 deg

Mean motion: 12.42430623 rev/day

Mean motion (dot): 0.00000099 rev/day2

B* drag term: 0.00064414215 1/REarth

Two-line elements (TLE)

Creation date: Dec. 19, 2025, 2:08 a.m.

Reference frame: TEME

Reference center: EARTH

Epoch: Dec. 18, 2025, 10:01 p.m. UTC

TLE line 0: 0 COSMOS 2481

TLE line 1: 1 38733U 12041A 25352.91753921 .00000099 00000-0 64414-3 0 9996

TLE line 2: 2 38733 82.4734 187.6008 0019400 108.0728 252.2466 12.42430623607360

Live tracking on map

Real-time ground track for satellite COSMOS 2481.

In-orbit conjunctions

There are no conjunctions computed for COSMOS 2481, at the moment. Check back to stay up to date, as we update our databases every day.

Go to all conjunctions

Associated space launch

Gonets-M are an upgraded version of Gonets satellites, derived from military communications system Strela-3. Gonets-M constellation is tasked with monitoring ecological and industrial objects, providing communication and data transmission services, covering also the remote areas like the Far North region.

COSMOS 2481 was lifted into orbit during the mission ‘Rokot / Briz-KM | Gonets M-13, Gonets M-15, Strela-3M (Kosmos-2481) & Yubileyniy 2 (MiR)’, on board a Rokot/Briz-KM space rocket.

The launch took place on July 28, 2012, 1:35 a.m. from 133/3 (133L).

For more information about the launch, click the button.

Launch to space Rokot / Briz-KM | Gonets M-13, Gonets M-15, Strela-3M (Kosmos-2481) & Yubileyniy 2 (MiR)
Rokot / Briz-KM | Gonets M-13, Gonets M-15, Strela-3M (Kosmos-2481) & Yubileyniy 2 (MiR)

Agency: N/A

Status: Launch Successful

Launch date: July 28, 2012, 1:35 a.m. UTC

Rocket: Rokot/Briz-KM

Launch pad: 133/3 (133L)

Location: Plesetsk Cosmodrome, Russian Federation

...

Latest news about this satellite

There are no fresh news available about this satellite. Check back as we update our databases every day.


Newsletter sign-up

Weekly statistics, charts and insights to help you stay on top of the space industry.